| time (UTC) | temp F | wind direction | speed MPH | gust MPH | rain 1hr in | rain 24hr in | rain mn in | humidity % | barometer mb |
| 20260510230009 | 61 | 38 | 3.0 | 0.0 | 0.00 | 0.00 | 0.00 | 44 | 1016.4 |
| 20260510224608 | 63 | 323 | 2.0 | 0.0 | 0.00 | 0.00 | 0.00 | 44 | 1016.5 |
| 20260510223051 | 61 | 298 | 2.0 | 0.0 | 0.00 | 0.00 | 0.00 | 45 | 1016.3 |
| 20260510221537 | 63 | 49 | 3.0 | 0.0 | 0.00 | 0.00 | 0.00 | 43 | 1016.3 |
| 20260510220037 | 61 | 18 | 2.0 | 0.0 | 0.00 | 0.00 | 0.00 | 46 | 1016.3 |
| 20260510214527 | 61 | 292 | 1.0 | 0.0 | 0.00 | 0.00 | 0.00 | 45 | 1016.0 |
| 20260510213011 | 62 | 301 | 2.0 | 0.0 | 0.00 | 0.00 | 0.00 | 45 | 1015.5 |
| 20260510211503 | 63 | 11 | 3.0 | 0.0 | 0.00 | 0.00 | 0.00 | 45 | 1015.2 |
| 20260510210053 | 63 | 5 | 3.0 | 0.0 | 0.00 | 0.00 | 0.00 | 43 | 1015.5 |
| 20260510204601 | 62 | 254 | 4.0 | 0.0 | 0.00 | 0.00 | 0.00 | 44 | 1015.3 |
| 20260510203039 | 62 | 331 | 3.0 | 0.0 | 0.00 | 0.00 | 0.00 | 47 | 1015.3 |
| 20260510201541 | 62 | 51 | 2.0 | 0.0 | 0.00 | 0.00 | 0.00 | 47 | 1015.6 |
| 20260510200029 | 63 | 242 | 3.0 | 0.0 | 0.00 | 0.00 | 0.00 | 45 | 1015.6 |
| 20260510194516 | 62 | 315 | 2.0 | 0.0 | 0.00 | 0.00 | 0.00 | 44 | 1015.5 |
| 20260510193008 | 63 | 26 | 3.0 | 0.0 | 0.00 | 0.00 | 0.00 | 42 | 1015.6 |
| 20260510191555 | 63 | 17 | 2.0 | 0.0 | 0.00 | 0.00 | 0.00 | 43 | 1015.5 |
| 20260510184553 | 63 | 260 | 2.0 | 0.0 | 0.00 | 0.00 | 0.00 | 41 | 1015.1 |
| 20260510183028 | 63 | 25 | 4.0 | 0.0 | 0.00 | 0.00 | 0.00 | 41 | 1015.3 |
| 20260510181520 | 63 | 272 | 3.0 | 0.0 | 0.00 | 0.00 | 0.00 | 42 | 1015.0 |
| 20260510180008 | 62 | 317 | 3.0 | 0.0 | 0.00 | 0.00 | 0.00 | 41 | 1014.9 |
| 20260510174623 | 62 | 328 | 3.0 | 0.0 | 0.00 | 0.00 | 0.00 | 48 | 1014.6 |
| 20260510173044 | 61 | 14 | 5.0 | 0.0 | 0.00 | 0.00 | 0.00 | 52 | 1014.8 |
| 20260510171544 | 60 | 69 | 4.0 | 0.0 | 0.00 | 0.00 | 0.00 | 55 | 1014.8 |
| 20260510170020 | 61 | 79 | 3.0 | 0.0 | 0.00 | 0.00 | 0.00 | 56 | 1015.0 |
| 20260510164510 | 61 | 360 | 3.0 | 0.0 | 0.00 | 0.00 | 0.00 | 56 | 1015.0 |
| 20260510163109 | 60 | 267 | 3.0 | 0.0 | 0.00 | 0.00 | 0.00 | 52 | 1014.9 |
| 20260510161546 | 61 | 52 | 3.0 | 0.0 | 0.00 | 0.00 | 0.00 | 55 | 1014.8 |
| 20260510160040 | 60 | 299 | 3.0 | 0.0 | 0.00 | 0.00 | 0.00 | 59 | 1014.8 |
| 20260510154527 | 59 | 338 | 3.0 | 0.0 | 0.00 | 0.00 | 0.00 | 58 | 1014.5 |
| 20260510153006 | 60 | 235 | 3.0 | 0.0 | 0.00 | 0.00 | 0.00 | 58 | 1014.5 |
| 20260510151600 | 58 | 45 | 3.0 | 0.0 | 0.00 | 0.00 | 0.00 | 60 | 1014.3 |
| 20260510151502 | 58 | 51 | 3.0 | 0.0 | 0.00 | 0.00 | 0.00 | 59 | 1014.3 |
| 20260510150056 | 59 | 78 | 2.0 | 0.0 | 0.00 | 0.00 | 0.00 | 59 | 1014.0 |
| 20260510144556 | 58 | 27 | 3.0 | 0.0 | 0.00 | 0.00 | 0.00 | 59 | 1014.2 |
| 20260510143032 | 57 | 59 | 4.0 | 0.0 | 0.00 | 0.00 | 0.00 | 59 | 1013.6 |
| 20260510141522 | 56 | 26 | 3.0 | 0.0 | 0.00 | 0.00 | 0.00 | 62 | 1013.5 |
| 20260510140016 | 55 | 78 | 3.0 | 0.0 | 0.00 | 0.00 | 0.00 | 66 | 1013.5 |
| 20260510134558 | 54 | 33 | 3.0 | 0.0 | 0.00 | 0.00 | 0.00 | 71 | 1013.2 |
| 20260510134502 | 53 | 49 | 2.0 | 0.0 | 0.00 | 0.00 | 0.00 | 71 | 1013.2 |
| 20260510133102 | 52 | 46 | 3.0 | 0.0 | 0.00 | 0.00 | 0.00 | 75 | 1013.1 |
| 20260510133001 | 52 | 45 | 2.0 | 0.0 | 0.00 | 0.00 | 0.00 | 75 | 1013.1 |
| 20260510131548 | 51 | 26 | 1.0 | 0.0 | 0.00 | 0.00 | 0.00 | 79 | 1013.3 |
| 20260510130040 | 51 | 38 | 0.0 | 0.0 | 0.00 | 0.00 | 0.00 | 80 | 1013.1 |
| 20260510124526 | 51 | 87 | 1.0 | 0.0 | 0.00 | 0.00 | 0.00 | 81 | 1013.0 |
| 20260510123006 | 50 | 88 | 0.0 | 0.0 | 0.00 | 0.00 | 0.00 | 81 | 1012.8 |
| 20260510121556 | 50 | 88 | 0.0 | 0.0 | 0.00 | 0.00 | 0.00 | 83 | 1012.6 |
| 20260510120042 | 49 | 87 | 0.0 | 0.0 | 0.00 | 0.00 | 0.00 | 83 | 1012.4 |
| 20260510114531 | 49 | 88 | 0.0 | 0.0 | 0.00 | 0.00 | 0.00 | 83 | 1012.0 |
| 20260510113028 | 49 | 88 | 0.0 | 0.0 | 0.00 | 0.00 | 0.00 | 82 | 1011.7 |
| 20260510111601 | 49 | 88 | 0.0 | 0.0 | 0.00 | 0.00 | 0.00 | 80 | 1011.5 |
| 20260510111502 | 49 | 88 | 0.0 | 0.0 | 0.00 | 0.00 | 0.00 | 79 | 1011.5 |
| 20260510110057 | 50 | 88 | 1.0 | 0.0 | 0.00 | 0.00 | 0.00 | 74 | 1010.8 |
| 20260510104534 | 51 | 51 | 1.0 | 0.0 | 0.00 | 0.00 | 0.00 | 72 | 1011.0 |
| 20260510103027 | 52 | 64 | 1.0 | 0.0 | 0.00 | 0.00 | 0.00 | 66 | 1010.6 |
| 20260510101515 | 52 | 351 | 2.0 | 0.0 | 0.00 | 0.00 | 0.00 | 67 | 1010.4 |
| 20260510100004 | 52 | 65 | 2.0 | 0.0 | 0.00 | 0.00 | 0.00 | 69 | 1010.0 |
| 20260510094551 | 53 | 67 | 2.0 | 0.0 | 0.00 | 0.00 | 0.00 | 72 | 1009.5 |
| 20260510093037 | 53 | 61 | 2.0 | 0.0 | 0.00 | 0.00 | 0.00 | 73 | 1009.3 |
| 20260510091526 | 54 | 51 | 2.0 | 0.0 | 0.00 | 0.00 | 0.00 | 74 | 1009.2 |
| 20260510090011 | 54 | 67 | 2.0 | 0.0 | 0.00 | 0.00 | 0.00 | 74 | 1008.8 |
| 20260510084610 | 55 | 360 | 3.0 | 0.0 | 0.00 | 0.00 | 0.00 | 74 | 1008.4 |
| 20260510083043 | 55 | 48 | 4.0 | 0.0 | 0.00 | 0.00 | 0.00 | 75 | 1008.2 |
| 20260510081540 | 56 | 355 | 2.0 | 0.0 | 0.00 | 0.00 | 0.00 | 75 | 1008.1 |
| 20260510080042 | 57 | 5 | 3.0 | 0.0 | 0.00 | 0.00 | 0.00 | 75 | 1008.0 |
| 20260510074507 | 57 | 235 | 1.0 | 0.0 | 0.00 | 0.00 | 0.00 | 76 | 1007.8 |
| 20260510073101 | 58 | 60 | 2.0 | 0.0 | 0.00 | 0.00 | 0.00 | 75 | 1007.7 |
| 20260510073001 | 58 | 63 | 2.0 | 0.0 | 0.00 | 0.00 | 0.00 | 75 | 1007.6 |
| 20260510071548 | 59 | 283 | 2.0 | 0.0 | 0.00 | 0.00 | 0.00 | 75 | 1007.5 |
| 20260510070043 | 60 | 99 | 2.0 | 0.0 | 0.00 | 0.00 | 0.00 | 75 | 1007.5 |
| 20260510064520 | 61 | 286 | 2.0 | 0.0 | 0.00 | 0.00 | 0.00 | 75 | 1007.3 |
| 20260510063013 | 62 | 253 | 3.0 | 0.0 | 0.00 | 0.00 | 0.00 | 74 | 1007.3 |
| 20260510061510 | 62 | 269 | 4.0 | 0.0 | 0.00 | 0.00 | 0.00 | 74 | 1007.3 |
| 20260510060051 | 62 | 236 | 4.0 | 0.0 | 0.00 | 0.00 | 0.00 | 74 | 1007.2 |
| 20260510054543 | 61 | 225 | 3.0 | 0.0 | 0.00 | 0.00 | 0.00 | 76 | 1007.2 |
| 20260510053034 | 60 | 182 | 3.0 | 0.0 | 0.00 | 0.00 | 0.00 | 77 | 1006.9 |
| 20260510051525 | 61 | 215 | 2.0 | 0.0 | 0.00 | 0.00 | 0.00 | 74 | 1006.7 |
| 20260510050013 | 61 | 203 | 2.0 | 0.0 | 0.00 | 0.00 | 0.00 | 73 | 1006.6 |
| 20260510044505 | 62 | 244 | 2.0 | 0.0 | 0.00 | 0.00 | 0.00 | 72 | 1006.6 |
| 20260510043053 | 62 | 238 | 2.0 | 0.0 | 0.00 | 0.00 | 0.00 | 71 | 1006.6 |
| 20260510041538 | 63 | 281 | 3.0 | 0.0 | 0.00 | 0.00 | 0.00 | 71 | 1006.7 |
| 20260510040027 | 63 | 240 | 2.0 | 0.0 | 0.00 | 0.00 | 0.00 | 71 | 1006.4 |
| 20260510034518 | 62 | 250 | 3.0 | 0.0 | 0.00 | 0.00 | 0.06 | 72 | 1006.1 |
| 20260510033008 | 62 | 222 | 3.0 | 0.0 | 0.00 | 0.00 | 0.06 | 71 | 1005.8 |
| 20260510031508 | 62 | 211 | 3.0 | 0.0 | 0.00 | 0.00 | 0.06 | 71 | 1005.8 |
| 20260510030059 | 63 | 214 | 2.0 | 0.0 | 0.00 | 0.00 | 0.06 | 70 | 1005.8 |
| 20260510024523 | 63 | 226 | 3.0 | 0.0 | 0.00 | 0.00 | 0.06 | 69 | 1006.0 |
| 20260510023017 | 63 | 215 | 3.0 | 0.0 | 0.00 | 0.00 | 0.06 | 69 | 1005.8 |
| 20260510021646 | 64 | 221 | 3.0 | 0.0 | 0.00 | 0.00 | 0.06 | 68 | 1005.6 |
| 20260510021505 | 64 | 220 | 3.0 | 0.0 | 0.00 | 0.00 | 0.06 | 68 | 1005.6 |
| 20260510020100 | 64 | 214 | 3.0 | 0.0 | 0.00 | 0.00 | 0.06 | 67 | 1005.5 |
| 20260510014556 | 65 | 221 | 4.0 | 0.0 | 0.00 | 0.00 | 0.06 | 67 | 1005.2 |
| 20260510013051 | 66 | 215 | 3.0 | 0.0 | 0.00 | 0.00 | 0.06 | 65 | 1004.9 |
| 20260510011538 | 66 | 242 | 3.0 | 0.0 | 0.00 | 0.00 | 0.06 | 65 | 1004.7 |
| 20260510010034 | 66 | 216 | 4.0 | 0.0 | 0.00 | 0.00 | 0.06 | 65 | 1004.5 |
| 20260510004515 | 67 | 218 | 4.0 | 0.0 | 0.00 | 0.00 | 0.06 | 63 | 1004.5 |
| 20260510003006 | 67 | 219 | 3.0 | 0.0 | 0.00 | 0.00 | 0.06 | 63 | 1004.3 |
| 20260510001506 | 67 | 228 | 4.0 | 0.0 | 0.00 | 0.00 | 0.06 | 63 | 1004.1 |
| 20260510000005 | 67 | 231 | 5.0 | 0.0 | 0.00 | 0.00 | 0.06 | 62 | 1003.9 |
| 20260509234554 | 68 | 220 | 6.0 | 0.0 | 0.00 | 0.00 | 0.06 | 61 | 1003.8 |
| 20260509233050 | 68 | 199 | 7.0 | 0.0 | 0.00 | 0.00 | 0.06 | 60 | 1003.8 |
| 20260509231533 | 69 | 194 | 7.0 | 0.0 | 0.00 | 0.00 | 0.06 | 58 | 1003.6 |